Terminal Aerodrome Forecast
Issued by NWS Pueblo, CO

Home | Current Version | Previous Version | Text Only | Print | Product List | Glossary On
Versions: 1 2 3 4 5 6 7 8 9 10 11 12 13 14 15 16 17 18 19 20 21 22 23 24 25 26 27 28 29 30 31 32 33 34 35 36 37 38 39 40 41 42 43 44 45 46 47 48 49 50
000
FTUS45 KPUB 260722 AAA
TAFCOS
TAF AMD
KCOS 260722Z 2607/2706 12006KT 3SM BR OVC005
     FM261400 VRB06KT P6SM SCT015
     FM261700 16010KT P6SM SCT040 SCT200
     FM262300 14012KT P6SM VCTS SCT060CB BKN140=

USA.gov is the U.S. government's official web portal to all federal, state and local government web resources and services.